Flag for Germany Weather past 2 weeks in Rheinberg, North Rhine-Westphalia, Germany

Now
50 °F

Fog.


Feels Like: 50 °F
Forecast: 64 / 89 °F
Wind: 1 mph from North

Location: Duesseldorf

Current Time: Aug 2, 2015 at 6:29:22 AM

Latest Report: Aug 2, 2015 at 4:00 AM


Visibility: 25 mi

Pressure: 30.10 "Hg

Humidity: 96%

Dew point: 49 °F

Location of RheinbergLocation

Historic Weather in Rheinberg — Graph

°F

Rheinberg temperature yesterday

Maximum temperature yesterday: 76 °F (at 7:00 PM)
Minimum temperature yesterday: 49 °F (at 7:00 AM)
Average temperature yesterday: 65 °F

Past Weeks' High & Low Weather Summary

 TemperatureHumidityPressure
High80 °F (Jul 24, 7:00 PM)98% (Jul 31, 4:00 AM)30.16 "Hg (Jul 31, 4:00 AM)
Low46 °F (Jul 31, 4:00 AM)32% (Aug 1, 3:00 PM)29.50 "Hg (Jul 25, 7:00 AM)
Average64 °F68%29.89 "Hg
* Reported Jul 18 4:00 AM — Aug 2 4:00 AM, Rheinberg, Weather by CustomWeather, © 2015

Note: Actual official high and low records may vary slightly from our data, if they occured in-between our weather recording intervals... More about our weather records

Advertising

Rheinberg weather history for previous 24 hours

 ConditionsComfort  
Time TempWeatherWind HumidityBarometerVisibility
4:00 AM
Sun, Aug 2
50 °FFog.1 mph96%30.10 "Hg25 mi
1:00 AM56 °FPassing clouds.1 mph82%30.08 "Hg28 mi
11:00 PM
Sat, Aug 1
64 °FOvercast.3 mph60%30.05 "Hg28 mi
10:00 PM67 °FOvercast.3 mph50%30.04 "Hg28 mi
8:00 PM74 °FPartly sunny.3 mph36%29.99 "Hg25 mi
7:00 PM76 °FPartly sunny.5 mph34%29.98 "Hg25 mi
6:00 PM76 °FPartly sunny.3 mph34%29.97 "Hg25 mi
5:00 PM75 °FPartly sunny.3 mph35%29.97 "Hg25 mi
4:00 PM76 °FScattered clouds.3 mph33%29.97 "Hg31 mi
3:00 PM75 °FScattered clouds.2 mph32%29.97 "Hg31 mi
2:00 PM74 °FScattered clouds.3 mph34%29.98 "Hg31 mi
1:00 PM72 °FScattered clouds.3 mph37%29.98 "Hg31 mi
12:00 PM71 °FScattered clouds.3 mph38%29.98 "Hg31 mi
11:00 AM68 °FScattered clouds.2 mph44%29.99 "Hg31 mi
10:00 AM64 °FScattered clouds.1 mph50%30.00 "Hg31 mi
9:00 AM60 °FPassing clouds.1 mph60%29.99 "Hg31 mi
8:00 AM55 °FPassing clouds.2 mph71%29.99 "Hg25 mi
7:00 AM49 °FScattered clouds.1 mph84%29.99 "Hg25 mi
Weather by CustomWeather, © 2015

See weather overviewHow to use our weather pages